Home   Weather   Woodbridge   Past weeks
Flag for USA

Past Weather in Woodbridge, North Carolina, USA — Yesterday and Last 2 Weeks

Now
79 °F

Fog.


Feels Like: 83 °F
Forecast: 97 / 77 °F
Wind: No wind

Location: Fayetteville Regional Airport

Current Time: Jul 16, 2019 at 8:52:44 am

Latest Report: Jul 16, 2019 at 7:53 am


Visibility: 6 mi

Pressure: 30.08 "Hg

Humidity: 94%

Dew Point: 77 °F

Location of WoodbridgeLocation

Past Weather in Woodbridge — Graph

°F

Woodbridge Temperature Yesterday

Maximum temperature yesterday: 96 °F (at 2:53 pm)
Minimum temperature yesterday: 74 °F (at 6:53 am)
Average temperature yesterday: 86 °F

High & Low Weather Summary for the Past Weeks

 TemperatureHumidityPressure
High101 °F (Jul 3, 3:53 pm)100% (Jul 2, 6:59 am)30.13 "Hg (Jul 2, 6:59 am)
Low70 °F (Jul 2, 6:18 am)26% (Jul 1, 4:53 pm)29.80 "Hg (Jul 8, 2:53 pm)
Average81 °F80%29.96 "Hg
* Reported Jul 1 6:53 am — Jul 16 6:53 am, Woodbridge. Weather by CustomWeather, © 2019

Note: Actual official high and low records may vary slightly from our data, if they occured in-between our weather recording intervals... More about our weather records

Advertising

Woodbridge Weather History for the Previous 24 Hours

Scroll right to see more
 ConditionsComfort  
Time TempWeatherWind HumidityBarometerVisibility
6:53 am
Tue, Jul 16
76 °FFog.No wind100%30.07 "Hg6 mi
5:53 am76 °FClear.No wind97%30.05 "Hg7 mi
4:53 am75 °FFog.3 mph100%30.03 "Hg6 mi
3:53 am77 °FClear.No wind96%30.02 "Hg9 mi
2:53 am77 °FClear.No wind94%30.03 "Hg9 mi
1:53 am78 °FClear.No wind90%30.04 "Hg10 mi
12:53 am81 °FClear.No wind82%30.05 "Hg10 mi
11:53 pm
Mon, Jul 15
81 °FClear.3 mph79%30.05 "Hg10 mi
10:53 pm82 °FClear.5 mph74%30.05 "Hg10 mi
9:53 pm85 °FClear.No wind68%30.03 "Hg10 mi
8:53 pm86 °FClear.3 mph63%30.02 "Hg10 mi
7:53 pm90 °FSunny.3 mph52%30.01 "Hg10 mi
6:53 pm94 °FSunny.5 mph46%30.00 "Hg10 mi
5:53 pm96 °FSunny.6 mph43%29.99 "Hg10 mi
4:53 pm96 °FSunny.6 mph43%30.00 "Hg10 mi
3:53 pm95 °FSunny.5 mph44%30.02 "Hg10 mi
2:53 pm96 °FSunny.8 mph46%30.03 "Hg10 mi
1:53 pm94 °FSunny.3 mph49%30.05 "Hg10 mi
12:53 pm94 °FSunny.5 mph48%30.05 "Hg10 mi
11:53 am93 °FSunny.6 mph52%30.06 "Hg10 mi
10:53 am91 °FSunny.7 mph52%30.06 "Hg10 mi
9:53 am89 °FSunny.5 mph59%30.06 "Hg10 mi
8:53 am84 °FSunny.5 mph67%30.06 "Hg10 mi
Weather by CustomWeather, © 2019

See weather overview

LIVE PARTIAL LUNAR ECLIPSE – Watch the eclipse as it happens